User: anonymous   Login
Location: Austin
(30.3000°N, 97.7500°W)
Time: 10:22:20
(UTC-05:00)
Language:

BREEZE-M DEB (TANK) - Orbit

View from above orbital plane
View from above orbital plane
View from above satellite
View from above satellite

Ground track
Ground track

The orbit data is extracted from the following two-line orbital elements,

1 36133U 09075C   23265.45033000  .00001001  00000-0  10253-2 0  9995
2 36133  45.8926 322.5955 5141421 200.8887 126.7059  5.22649203260601
Epoch (UTC): 22 September 2023 10:48:28
Eccentricity: 0.5141421
inclination: 45.8926°
perigee height: 436 km
apogee height: 14859 km
right ascension of ascending node: 322.5955°
argument of perigee: 200.8887°
revolutions per day: 5.22649203
mean anomaly at epoch: 126.7059°
orbit number at epoch: 26060

The dashed part of the orbit path shows where the satellite is in the earth's shadow,  

DLR